When you browse on this site, cookies collect data to enhance your experience and personalize the content and advertising you see.
Visit our Privacy Policy to learn more. By continuing to use the site, you agree to this use of cookies and data.
  • Em Portugal
  • Lista de países
  • Para 7 dias
  • Temperatura da água
  • Mapas de satélite
  • Mapa do tempo
  • Widgets de tempo
  • user-avatar
    Iniciar Sessão

    Previsão horária em Jeze

    Hoje, 26 Junho, Quarta-feira

    Tempo Temperatura Precipitação Vento Pressão Humidade
    00:00 +21°C° 0.2 mm 3 m/s 756 mmHg 87%
    01:00 +21°C° 0 mm 3 m/s 755 mmHg 91%
    02:00 +21°C° 0.2 mm 3 m/s 755 mmHg 93%
    03:00 +21°C° 0.2 mm 3 m/s 755 mmHg 95%
    04:00 +21°C° 0.2 mm 3 m/s 754 mmHg 97%
    05:00 +22°C° 0 mm 3 m/s 754 mmHg 93%
    06:00 +25°C° 0 mm 3 m/s 754 mmHg 89%
    07:00 +26°C° 0 mm 3 m/s 754 mmHg 83%
    08:00 +28°C° 0 mm 3 m/s 754 mmHg 77%
    09:00 +29°C° 0 mm 4 m/s 753 mmHg 72%
    10:00 +32°C° 0 mm 4 m/s 753 mmHg 67%
    11:00 +32°C° 0 mm 4 m/s 753 mmHg 64%
    12:00 +33°C° 0 mm 5 m/s 752 mmHg 60%
    13:00 +34°C° 0 mm 5 m/s 752 mmHg 57%
    14:00 +33°C° 0 mm 5 m/s 752 mmHg 59%
    15:00 +33°C° 0 mm 5 m/s 751 mmHg 61%
    16:00 +33°C° 0 mm 4 m/s 750 mmHg 63%
    17:00 +32°C° 0.5 mm 4 m/s 750 mmHg 68%
    18:00 +29°C° 0.5 mm 4 m/s 750 mmHg 73%
    19:00 +28°C° 0.5 mm 4 m/s 749 mmHg 78%
    20:00 +27°C° 0.1 mm 3 m/s 749 mmHg 81%
    21:00 +26°C° 0.1 mm 3 m/s 749 mmHg 83%
    22:00 +24°C° 0.1 mm 3 m/s 749 mmHg 86%
    23:00 +24°C° 0.2 mm 3 m/s 749 mmHg 88%

    Amanhã, 27 Junho, Quinta-feira

    Tempo Temperatura Precipitação Vento Pressão Humidade
    00:00 +22°C° 0.2 mm 4 m/s 749 mmHg 90%
    01:00 +21°C° 0.2 mm 5 m/s 749 mmHg 91%
    02:00 +20°C° 0 mm 5 m/s 748 mmHg 91%
    03:00 +19°C° 0 mm 6 m/s 748 mmHg 91%
    04:00 +17°C° 0 mm 6 m/s 748 mmHg 91%
    05:00 +18°C° 0 mm 7 m/s 748 mmHg 88%
    06:00 +18°C° 0 mm 7 m/s 748 mmHg 84%
    07:00 +18°C° 0 mm 8 m/s 749 mmHg 81%
    08:00 +18°C° 0 mm 8 m/s 749 mmHg 79%
    09:00 +17°C° 0 mm 7 m/s 749 mmHg 77%
    10:00 +17°C° 0 mm 7 m/s 749 mmHg 75%
    11:00 +18°C° 0.1 mm 7 m/s 749 mmHg 75%
    12:00 +18°C° 0.1 mm 7 m/s 749 mmHg 74%
    13:00 +20°C° 0.1 mm 7 m/s 749 mmHg 74%
    14:00 +20°C° 0.2 mm 7 m/s 749 mmHg 75%
    15:00 +20°C° 0.2 mm 7 m/s 749 mmHg 76%
    16:00 +20°C° 0.2 mm 7 m/s 749 mmHg 77%
    17:00 +19°C° 0.3 mm 6 m/s 749 mmHg 80%
    18:00 +17°C° 0.3 mm 6 m/s 749 mmHg 84%
    19:00 +16°C° 0.3 mm 5 m/s 750 mmHg 87%
    20:00 +15°C° 0 mm 5 m/s 750 mmHg 89%
    21:00 +14°C° 0 mm 5 m/s 751 mmHg 90%
    22:00 +12°C° 0 mm 4 m/s 751 mmHg 92%
    23:00 +12°C° 0 mm 4 m/s 751 mmHg 91%

    Depois de amanhã, 28 Junho, Sexta-feira

    Tempo Temperatura Precipitação Vento Pressão Humidade
    00:00 +11°C° 0 mm 4 m/s 752 mmHg 91%
    01:00 +10°C° 0 mm 3 m/s 752 mmHg 91%
    02:00 +10°C° 0 mm 4 m/s 752 mmHg 91%
    03:00 +10°C° 0 mm 4 m/s 752 mmHg 91%
    04:00 +10°C° 0 mm 4 m/s 752 mmHg 90%
    05:00 +12°C° 0 mm 4 m/s 752 mmHg 85%
    06:00 +14°C° 0 mm 5 m/s 752 mmHg 79%
    07:00 +15°C° 0 mm 5 m/s 752 mmHg 74%
    08:00 +17°C° 0 mm 6 m/s 752 mmHg 69%
    09:00 +19°C° 0 mm 6 m/s 752 mmHg 64%
    10:00 +20°C° 0 mm 7 m/s 752 mmHg 59%
    11:00 +20°C° 0 mm 7 m/s 751 mmHg 57%
    12:00 +21°C° 0 mm 7 m/s 751 mmHg 56%
    13:00 +21°C° 0 mm 7 m/s 751 mmHg 54%
    14:00 +21°C° 0 mm 7 m/s 751 mmHg 54%
    15:00 +20°C° 0 mm 7 m/s 752 mmHg 55%
    16:00 +20°C° 0 mm 7 m/s 752 mmHg 55%
    17:00 +17°C° 0 mm 6 m/s 752 mmHg 61%
    18:00 +16°C° 0 mm 5 m/s 752 mmHg 67%
    19:00 +15°C° 0 mm 4 m/s 752 mmHg 73%
    20:00 +13°C° 0 mm 4 m/s 752 mmHg 74%
    21:00 +12°C° 0 mm 4 m/s 753 mmHg 75%
    22:00 +11°C° 0 mm 4 m/s 753 mmHg 76%
    23:00 +11°C° 0 mm 4 m/s 753 mmHg 77%

    29 Junho, Sábado

    Tempo Temperatura Precipitação Vento Pressão Humidade
    00:00 +10°C° 0 mm 4 m/s 753 mmHg 78%
    01:00 +10°C° 0 mm 4 m/s 753 mmHg 79%
    02:00 +10°C° 0 mm 3 m/s 753 mmHg 80%
    03:00 +10°C° 0 mm 3 m/s 753 mmHg 81%
    04:00 +10°C° 0 mm 3 m/s 753 mmHg 82%
    05:00 +12°C° 0 mm 3 m/s 753 mmHg 79%
    06:00 +13°C° 0 mm 3 m/s 753 mmHg 75%
    07:00 +16°C° 0 mm 3 m/s 753 mmHg 72%
    08:00 +18°C° 0 mm 4 m/s 753 mmHg 69%
    09:00 +19°C° 0 mm 4 m/s 753 mmHg 65%
    10:00 +21°C° 0 mm 4 m/s 753 mmHg 62%
    11:00 +22°C° 0 mm 4 m/s 753 mmHg 61%
    12:00 +23°C° 0 mm 4 m/s 752 mmHg 60%
    13:00 +23°C° 0 mm 5 m/s 752 mmHg 59%
    14:00 +23°C° 0.2 mm 5 m/s 752 mmHg 61%
    15:00 +23°C° 0.2 mm 4 m/s 752 mmHg 62%
    16:00 +23°C° 0.2 mm 4 m/s 751 mmHg 64%
    17:00 +24°C° 0.1 mm 3 m/s 752 mmHg 67%
    18:00 +22°C° 0.1 mm 3 m/s 752 mmHg 72%
    19:00 +21°C° 0.1 mm 2 m/s 752 mmHg 78%
    20:00 +19°C° 0 mm 2 m/s 752 mmHg 81%
    21:00 +18°C° 0 mm 2 m/s 752 mmHg 84%
    22:00 +17°C° 0 mm 2 m/s 752 mmHg 88%
    23:00 +16°C° 0 mm 2 m/s 752 mmHg 88%

    30 Junho, Domingo

    Tempo Temperatura Precipitação Vento Pressão Humidade
    00:00 +16°C° 0 mm 2 m/s 752 mmHg 89%
    01:00 +16°C° 0 mm 2 m/s 751 mmHg 89%
    02:00 +15°C° 0 mm 2 m/s 751 mmHg 89%
    03:00 +15°C° 0 mm 2 m/s 751 mmHg 89%
    04:00 +15°C° 0 mm 2 m/s 751 mmHg 89%
    05:00 +17°C° 0 mm 2 m/s 751 mmHg 84%
    06:00 +18°C° 0 mm 2 m/s 751 mmHg 79%
    07:00 +20°C° 0 mm 3 m/s 751 mmHg 74%
    08:00 +22°C° 0 mm 3 m/s 751 mmHg 69%
    09:00 +24°C° 0 mm 3 m/s 751 mmHg 64%
    10:00 +26°C° 0 mm 3 m/s 751 mmHg 60%
    11:00 +27°C° 0 mm 4 m/s 751 mmHg 57%
    12:00 +28°C° 0 mm 4 m/s 750 mmHg 55%
    13:00 +28°C° 0 mm 4 m/s 750 mmHg 53%
    14:00 +29°C° 0 mm 4 m/s 750 mmHg 54%
    15:00 +29°C° 0 mm 4 m/s 749 mmHg 55%
    16:00 +29°C° 0 mm 4 m/s 749 mmHg 57%
    17:00 +28°C° 0 mm 4 m/s 748 mmHg 62%
    18:00 +26°C° 0 mm 4 m/s 748 mmHg 68%
    19:00 +25°C° 0 mm 4 m/s 748 mmHg 73%
    20:00 +23°C° 0 mm 4 m/s 747 mmHg 73%
    21:00 +22°C° 0 mm 4 m/s 747 mmHg 72%
    22:00 +21°C° 0 mm 5 m/s 747 mmHg 71%
    23:00 +21°C° 0 mm 5 m/s 747 mmHg 74%

    1 Julho, Segunda-feira

    Tempo Temperatura Precipitação Vento Pressão Humidade
    00:00 +20°C° 0 mm 4 m/s 747 mmHg 77%
    01:00 +20°C° 0 mm 4 m/s 747 mmHg 80%
    02:00 +19°C° 0 mm 4 m/s 747 mmHg 84%
    03:00 +19°C° 0 mm 4 m/s 747 mmHg 87%
    04:00 +18°C° 0 mm 3 m/s 747 mmHg 90%
    05:00 +19°C° 0 mm 4 m/s 747 mmHg 85%
    06:00 +20°C° 0 mm 4 m/s 747 mmHg 79%
    07:00 +21°C° 0 mm 4 m/s 747 mmHg 73%
    08:00 +22°C° 0 mm 5 m/s 748 mmHg 69%
    09:00 +22°C° 0 mm 5 m/s 748 mmHg 64%
    10:00 +23°C° 0 mm 6 m/s 748 mmHg 59%
    11:00 +24°C° 0 mm 6 m/s 748 mmHg 57%
    12:00 +25°C° 0 mm 5 m/s 747 mmHg 55%
    13:00 +26°C° 0 mm 5 m/s 747 mmHg 53%
    14:00 +26°C° 0 mm 5 m/s 747 mmHg 54%
    15:00 +26°C° 0 mm 5 m/s 747 mmHg 55%
    16:00 +25°C° 0 mm 4 m/s 746 mmHg 56%
    17:00 +24°C° 0 mm 3 m/s 746 mmHg 62%
    18:00 +22°C° 0 mm 3 m/s 746 mmHg 67%
    19:00 +21°C° 0 mm 2 m/s 746 mmHg 72%
    20:00 +20°C° 0 mm 2 m/s 745 mmHg 73%
    21:00 +19°C° 0 mm 2 m/s 745 mmHg 74%
    22:00 +18°C° 0 mm 2 m/s 745 mmHg 75%
    23:00 +17°C° 0 mm 2 m/s 745 mmHg 76%
    Mostrar mais